星链-4510 (STARLINK-4510 )

导读

STARLINK-4510是美国于2022年8月10日发射的星链系列卫星,隶属于SpaceX星链星座项目。星链项目旨在构建全球卫星互联网,为偏远地区、移动场景等提供高速低时延宽带服务。该卫星发射后进入预定轨道,参与星座组网运营,是星链全球覆盖网络建设过程中的一员,助力SpaceX推进卫星互联网服务的部署与普及。

Basic Information
目录编号:
53405
目录名称:
STARLINK-4510
国际标识:
2022-097T
轨道中心:
EARTH
卫星名称:
星链-4510
卫星全名:
星链-4510 (STARLINK-4510 )
卫星状态:
在轨 (已飞行1486 天)
发射日期:
2022-08-10 UTC
国别 :
美国 (US)
星等 :
--
Orbit Information
数据来源 国际轨道数据
星历时间: 2026-09-04T03:45:18+0800
10小时前
查看轨道信息
半长轴: 6837.837km
偏心率: 0.0000677
轨道倾角: 53.163°
近地点辐角 82.705°
升交点赤经 39.440°
平近点角 277.403°
近地点: 459.237km
远地点: 460.163km
周期: 93.786分钟
每日圈数: 15.354113
Detailed Information
固有亮度:
5
最大亮度:
2.5
卫星平台:
Starlink v1.5
覆盖范围:
全球
运营商:
太空探索技术公司
运营商所在国:
美国
制造商(研发单位):
太空探索技术公司
制造商所在国:
美国
使用方式:
暂无
Satellite Introduction
星链(Starlink)计划是由太空探索技术公司(SpaceX)提出的一个巨型低轨卫星互联网星座项目,计划在2019年至2024年间在太空搭建由约1.2万颗卫星组成的“星链”网络,其中1584颗将部署在地球上空550千米处的近地轨道,并从2020年开始工作。该卫星仍在工作。
2D Orbit Map
3D Orbit Map
Orbit Altitude Analysis Chart
Orbit Inclination Analysis Chart
Orbit Comprehensive Analysis Chart
View Comprehensive Chart
Conjunction Data List
Event ID Objects TCA Miss Dist (km) Collision Risk Probability Collision Risk Index (CRI) Action
CDM_260828-204005-340505-635121
2026-08-28T
20:40:55+0000
1.870 km
极远距离
3.41099E-6 低风险 0.46
CDM_260828-195305-340505-635122
2026-08-28T
19:53:56+0000
1.926 km
极远距离
3.146538E-6 低风险 0.45
CDM_260904-143605-340506-855521
2026-09-04T
14:36:51+0000
2.233 km
极远距离
1.911588E-6 低风险 0.41
CDM_260904-004305-340505-357521
2026-09-04T
00:43:11+0000
2.771 km
极远距离
1.021949E-6 低风险 0.35
CDM_260905-010005-340506-960021
2026-09-05T
01:00:02+0000
2.176 km
极远距离
7.88231E-7 极低风险 0.33
CDM_260829-181305-209405-340521
2026-08-29T
18:13:08+0000
2.858 km
极远距离
7.060327E-7 极低风险 0.32
CDM_260905-054505-340506-996521
2026-09-05T
05:45:02+0000
2.798 km
极远距离
4.206502E-7 极低风险 0.27
CDM_260901-075905-340506-195221
2026-09-01T
07:59:26+0000
2.669 km
极远距离
3.539751E-7 极低风险 0.26
CDM_260903-082505-340506-520521
2026-09-03T
08:25:53+0000
2.697 km
极远距离
2.863546E-7 极低风险 0.24